Starlink 11593

operational
NORAD ID: 63318 Int'l Des: 2025-057 Owner: SPXS Country: US Constellation: starlink
LEOCIRCULAR

关于 Starlink 11593

正在加载描述...

实时位置

正在加载3D地球...

即将过境

高度历史

Altitude vs Time

uPlot chart will show altitude changes over time

两行轨道根数

1 63318U 25057M 25352.19644878 .00187123 00000-0 14240-2 0 9999
2 63318 43.0035 35.4943 0002286 276.1813 83.8794 15.70926800 44399
Epoch: Dec 18, 2025 • Age: 9 hours

当前状态

高度 362.2 km
速度 7.69 km/s
星下点 -27.88°S, 39.07°W
发射日期 Mar 18, 2025
运行时间 0.7 years
类型 internet

技术详情

分类 Payload
质量 960.00 kg
干质量 910.00 kg
总质量 960.00 kg
长度 0.30 m
直径 4.10 m
跨度 29.00 m
形状 Box + pan
制造商 SPXS
平台类型 Starlink V2MD
阶段状态 In Orbit
所有者/国家 SPXS/US

大型星座

Loading constellations...